Location: St. Louis
(38.6270°N, 90.1994°W)
Time: 11:30:17
(UTC-06:00)

Altair - Pass Details

Date: 03 December 2021
Orbit: 1501 x 1683 km, 47.2° (Epoch: 25 January)

Event Time Altitude Azimuth Distance (km) Brightness Sun altitude
Rises 15:33:34 0° 236° (SW) 4,800 12.4 9.9°
Reaches altitude 10° 15:36:42 10° 236° (SW) 3,791 12.8 9.4°
Maximum altitude 15:46:19 89° 149° (SSE) 1,549 7.8 7.9°
Drops below altitude 10° 15:55:38 10° 60° (ENE) 3,676 8.9 6.5°
Sets 15:58:37 0° 60° (ENE) 4,648 9.3 6.0°
